TimeMST,TemperatureF,Dew PointF,Humidity,Sea Level PressureIn,VisibilityMPH,Wind Direction,Wind SpeedMPH,Gust SpeedMPH,PrecipitationIn,Events,Conditions,WindDirDegrees,DateUTC
12:56 AM,18.0,14.0,84,29.84,-9999.0,Calm,Calm,-,N/A,,Unknown,0,2013-01-10 07:56:00
1:56 AM,17.1,14.0,88,29.81,-9999.0,Calm,Calm,-,N/A,,Unknown,0,2013-01-10 08:56:00
2:56 AM,19.9,17.1,89,29.78,-9999.0,Calm,Calm,-,N/A,,Unknown,0,2013-01-10 09:56:00
3:56 AM,26.1,21.0,81,29.72,-9999.0,Calm,Calm,-,N/A,,Unknown,0,2013-01-10 10:56:00
4:56 AM,25.0,21.9,88,29.69,-9999.0,Calm,Calm,-,0.01,,Unknown,0,2013-01-10 11:56:00
5:56 AM,25.0,21.9,88,29.68,-9999.0,Calm,Calm,-,0.01,,Unknown,0,2013-01-10 12:56:00
6:56 AM,25.0,21.9,88,29.70,-9999.0,Calm,Calm,-,0.04,,Unknown,0,2013-01-10 13:56:00
7:56 AM,24.1,21.9,91,29.70,-9999.0,Calm,Calm,-,0.04,,Unknown,0,2013-01-10 14:56:00
8:56 AM,25.0,23.0,92,29.70,-9999.0,Calm,Calm,-,0.02,,Unknown,0,2013-01-10 15:56:00
9:56 AM,26.1,23.0,88,29.68,-9999.0,Calm,Calm,-,0.03,,Unknown,0,2013-01-10 16:56:00
10:56 AM,27.0,25.0,92,29.66,-9999.0,Calm,Calm,-,0.04,,Unknown,0,2013-01-10 17:56:00
11:56 AM,28.0,24.1,85,29.60,-9999.0,Calm,Calm,-,0.02,,Unknown,0,2013-01-10 18:56:00
12:56 PM,28.9,25.0,85,29.55,-9999.0,Variable,3.5,-,0.01,,Unknown,0,2013-01-10 19:56:00
1:56 PM,28.9,25.0,85,29.54,-9999.0,Calm,Calm,-,0.01,,Unknown,0,2013-01-10 20:56:00
2:56 PM,28.0,24.1,85,29.51,-9999.0,Calm,Calm,-,0.01,,Unknown,0,2013-01-10 21:56:00
3:56 PM,25.0,19.9,81,29.47,-9999.0,West,5.8,-,N/A,,Unknown,280,2013-01-10 22:56:00
4:56 PM,19.9,16.0,85,29.53,-9999.0,West,10.4,17.3,N/A,,Unknown,280,2013-01-10 23:56:00
5:56 PM,18.0,12.9,81,29.55,-9999.0,Calm,Calm,-,N/A,,Unknown,0,2013-01-11 00:56:00
6:56 PM,17.1,12.0,81,29.55,-9999.0,Calm,Calm,-,N/A,,Unknown,0,2013-01-11 01:56:00
7:56 PM,15.1,10.0,80,29.55,-9999.0,Calm,Calm,-,N/A,,Unknown,0,2013-01-11 02:56:00
8:56 PM,15.1,10.0,80,29.53,-9999.0,Calm,Calm,-,N/A,,Unknown,0,2013-01-11 03:56:00
9:56 PM,15.1,10.9,84,29.51,-9999.0,Calm,Calm,-,N/A,,Unknown,0,2013-01-11 04:56:00
10:56 PM,14.0,10.9,88,29.49,-9999.0,Calm,Calm,-,0.02,,Unknown,0,2013-01-11 05:56:00
11:56 PM,12.0,8.1,84,29.51,-9999.0,Variable,3.5,-,0.02,,Unknown,0,2013-01-11 06:56:00